New Braunfels, TX

12:38 AM CST on November 23, 2017 (GMT -0600)
New Braunfels Municipal

Weather History for KBAZ - May, 2014

Change the Weather History Date:

Wednesday, May 14, 2014

  Actual Average (KRND) Record (KRND)
Temperature  
Mean Temperature 64 °F -  
Max Temperature 75 °F 84 °F 96 °F (2003)
Min Temperature 52 °F 65 °F 52 °F (2014)
Degree Days  
Heating Degree Days 1    
Growing Degree Days 14 (Base 50)    
Moisture  
Dew Point 44 °F    
Average Humidity 58    
Maximum Humidity 93    
Minimum Humidity 24    
Precipitation  
Precipitation 0.00 in - - ()
Sea Level Pressure  
Sea Level Pressure 30.22 in    
Wind  
Wind Speed 15 mph (North)    
Max Wind Speed 22 mph    
Max Gust Speed 31 mph    
Visibility 10 miles    
Events Rain    
Averages and records for this station are not official NWS values.
T = Trace of Precipitation, MM = Missing Value Source: NWS Daily Summary

Daily Weather History Graph

Daily Weather History Graph

Search for Another Location

Airport or City:

Trip Planner

Search our weather history database for the weather conditions in past years. The results will help you decide how hot, cold, wet, or windy it might be!

Date:

Astronomy

May. 14, 2014 Rise Set
Actual Time 6:39 AM CDT 8:17 PM CDT
Civil Twilight 6:13 AM CDT 8:43 PM CDT
Nautical Twilight 5:42 AM CDT 9:14 PM CDT
Astronomical Twilight 5:10 AM CDT 9:47 PM CDT
Moon 8:26 PM CDT (5/14) 6:36 AM CDT (5/14)
Length of Visible Light 14h 29m
Length of Day
13h 37m
Full, 100% of the Moon is Illuminated
May 14
Full
May 14
Full
May 21
Last Quarter
May 28
New
Jun 5
First Quarter

Hourly Weather History & Observations

Time (CDT) Temp. Dew Point Humidity Pressure Visibility Wind Dir Wind Speed Gust Speed Precip Events Conditions
1:51 AM 55.0 °F 53.1 °F 93% 30.21 in 10.0 mi NNW 17.3 mph - 0.00 in Rain Light Rain
2:51 AM 55.0 °F 53.1 °F 93% 30.22 in 10.0 mi North 21.9 mph - 0.00 in Rain Light Rain
3:51 AM 54.0 °F 51.1 °F 90% 30.21 in 10.0 mi North 15.0 mph - 0.00 in   Overcast
4:51 AM 54.0 °F 51.1 °F 90% 30.21 in 10.0 mi North 11.5 mph - N/A   Overcast
5:51 AM 54.0 °F 51.1 °F 90% 30.23 in 10.0 mi North 11.5 mph - N/A   Mostly Cloudy
6:51 AM 53.1 °F 50.0 °F 89% 30.24 in 10.0 mi North 13.8 mph - N/A   Partly Cloudy
7:51 AM 54.0 °F 48.9 °F 83% 30.25 in 10.0 mi North 15.0 mph - N/A   Clear
8:51 AM 57.0 °F 50.0 °F 77% 30.27 in 10.0 mi North 17.3 mph 23.0 mph N/A   Clear
10:51 AM 66.0 °F 46.0 °F 48% 30.27 in 10.0 mi North 16.1 mph 27.6 mph N/A   Clear
12:51 PM 72.0 °F 39.9 °F 31% 30.25 in 10.0 mi North 18.4 mph 31.1 mph N/A   Clear
1:51 PM 73.0 °F 39.9 °F 30% 30.23 in 10.0 mi North 21.9 mph 31.1 mph N/A   Clear
2:51 PM 73.9 °F 37.9 °F 27% 30.20 in 10.0 mi NNW 18.4 mph 26.5 mph N/A   Clear
4:51 PM 75.0 °F 37.0 °F 25% 30.17 in 10.0 mi North 18.4 mph 25.3 mph N/A   Clear
5:51 PM 75.0 °F 36.0 °F 24% 30.16 in 10.0 mi North 17.3 mph 24.2 mph N/A   Clear
6:51 PM 73.0 °F 35.1 °F 25% 30.16 in 10.0 mi North 13.8 mph - N/A   Clear
7:47 PM 69.8 °F 35.6 °F 28% 30.18 in 10.0 mi North 9.2 mph - N/A   Partly Cloudy
7:51 PM 69.1 °F 37.9 °F 32% 30.17 in 10.0 mi North 8.1 mph - N/A   Clear
8:51 PM 63.0 °F 39.0 °F 41% 30.19 in 10.0 mi NE 4.6 mph - N/A   Clear
10:51 PM 55.9 °F 43.0 °F 62% 30.24 in 10.0 mi Calm Calm - N/A   Clear
11:51 PM 52.0 °F 44.1 °F 74% 30.25 in 10.0 mi WNW 4.6 mph - N/A   Clear